Weather History for KANK - November, 2012

Change the Weather History Date:

Wednesday, November 7, 2012

  Actual Average (KGUC) Record (KGUC)
Temperature  
Mean Temperature 50 °F -  
Max Temperature 69 °F 43 °F 62 °F (2012)
Min Temperature 32 °F 17 °F 0 °F (2008)
Degree Days  
Heating Degree Days 14    
Moisture  
Dew Point 12 °F    
Average Humidity 27    
Maximum Humidity 49    
Minimum Humidity 6    
Precipitation  
Precipitation 0.00 in - - ()
Sea Level Pressure  
Sea Level Pressure 30.31 in    
Wind  
Wind Speed 9 mph (WNW)    
Max Wind Speed 22 mph    
Max Gust Speed 32 mph    
Visibility 10 miles    
Events      
Averages and records for this station are not official NWS values.
T = Trace of Precipitation, MM = Missing Value Source: NWS Daily Summary

Daily Weather History Graph

Daily Weather History Graph

Search for Another Location

Airport or City:

Trip Planner

Search our weather history database for the weather conditions in past years. The results will help you decide how hot, cold, wet, or windy it might be!

Date:

Astronomy

Nov. 07, 2012 Rise Set
Actual Time 6:37 AM MST 4:57 PM MST
Civil Twilight 6:10 AM MST 5:25 PM MST
Nautical Twilight 5:38 AM MST 5:56 PM MST
Astronomical Twilight 5:07 AM MST 6:28 PM MST
Moon No Moon Rise 1:03 PM MST (11/7)
Length of Visible Light 11h 15m
Length of Day
10h 19m
Last Quarter, 42% of the Moon is Illuminated
Nov 7
Last Quarter
Nov 13
New
Nov 20
First Quarter
Nov 28
Full
Dec 6
Last Quarter

Hourly Weather History & Observations

Time (MST) Temp. Windchill Dew Point Humidity Pressure Visibility Wind Dir Wind Speed Gust Speed Precip Events Conditions
12:15 AM 36.1 °F - 16.2 °F 44% 30.43 in 10.0 mi Calm Calm - N/A   Clear
12:35 AM 35.6 °F 32.8 °F 16.5 °F 46% 30.42 in 10.0 mi West 3.5 mph - N/A   Clear
12:55 AM 39.2 °F 35.0 °F 16.2 °F 39% 30.42 in 10.0 mi West 5.8 mph - N/A   Clear
1:15 AM 38.5 °F 35.0 °F 15.8 °F 40% 30.42 in 10.0 mi NW 4.6 mph - N/A   Clear
1:35 AM 36.7 °F 30.5 °F 15.8 °F 43% 30.41 in 10.0 mi WNW 8.1 mph - N/A   Clear
1:55 AM 39.7 °F 34.9 °F 16.3 °F 39% 30.41 in 10.0 mi NW 6.9 mph - N/A   Clear
2:15 AM 36.7 °F 30.5 °F 16.2 °F 43% 30.40 in 10.0 mi NNW 8.1 mph - N/A   Clear
2:35 AM 39.4 °F 33.8 °F 16.3 °F 39% 30.40 in 10.0 mi WNW 8.1 mph - N/A   Clear
2:55 AM 39.4 °F 31.8 °F 15.8 °F 38% 30.39 in 10.0 mi NNW 12.7 mph - N/A   Clear
3:15 AM 39.2 °F 32.0 °F 15.8 °F 39% 30.38 in 10.0 mi NNW 11.5 mph 17.3 mph N/A   Clear
3:35 AM 37.8 °F 30.2 °F 15.8 °F 41% 30.37 in 10.0 mi NNW 11.5 mph - N/A   Clear
3:55 AM 36.0 °F 28.0 °F 15.8 °F 44% 30.37 in 10.0 mi NNW 11.5 mph - N/A   Clear
4:15 AM 35.2 °F 29.5 °F 15.4 °F 44% 30.37 in 10.0 mi North 6.9 mph - N/A   Clear
4:35 AM 32.0 °F - 14.9 °F 49% 30.38 in 10.0 mi Calm Calm - N/A   Clear
4:55 AM 33.4 °F 29.1 °F 15.6 °F 48% 30.37 in 10.0 mi NNW 4.6 mph - N/A   Clear
5:15 AM 34.7 °F 29.6 °F 15.8 °F 46% 30.37 in 10.0 mi NW 5.8 mph - N/A   Clear
5:35 AM 34.7 °F 27.5 °F 15.6 °F 46% 30.37 in 10.0 mi NNW 9.2 mph - N/A   Clear
6:15 AM 35.6 °F 26.6 °F 16.2 °F 45% 30.36 in 10.0 mi NNW 13.8 mph - N/A   Clear
6:35 AM 36.1 °F 27.3 °F 15.8 °F 44% 30.36 in 10.0 mi NNW 13.8 mph 18.4 mph N/A   Clear
6:55 AM 36.1 °F 27.3 °F 16.2 °F 44% 30.36 in 10.0 mi NNW 13.8 mph 21.9 mph N/A   Clear
7:15 AM 36.0 °F 28.0 °F 16.2 °F 45% 30.37 in 10.0 mi NNW 11.5 mph - N/A   Clear
7:35 AM 37.4 °F 28.9 °F 15.8 °F 41% 30.37 in 10.0 mi NNW 13.8 mph - N/A   Clear
7:55 AM 39.4 °F 31.1 °F 15.6 °F 38% 30.36 in 10.0 mi NNW 15.0 mph - N/A   Clear
8:15 AM 41.0 °F 34.3 °F 15.6 °F 36% 30.35 in 10.0 mi NNW 11.5 mph - N/A   Clear
9:15 AM 48.7 °F - 16.0 °F 27% 30.33 in 10.0 mi NNW 9.2 mph - N/A   Clear
9:35 AM 51.3 °F - 16.3 °F 25% 30.32 in 10.0 mi North 8.1 mph - N/A   Clear
9:55 AM 55.0 °F - 16.5 °F 22% 30.31 in 10.0 mi NNE 6.9 mph - N/A   Clear
10:15 AM 57.7 °F - 16.5 °F 20% 30.30 in 10.0 mi Calm Calm - N/A   Clear
10:35 AM 63.3 °F - 12.7 °F 14% 30.29 in 10.0 mi SSW 18.4 mph 26.5 mph N/A   Clear
10:55 AM 63.1 °F - 12.0 °F 14% 30.28 in 10.0 mi SSW 21.9 mph 27.6 mph N/A   Clear
11:15 AM 64.4 °F - 12.0 °F 13% 30.26 in 10.0 mi SSW 18.4 mph 24.2 mph N/A   Clear
11:35 AM 65.3 °F - 11.3 °F 12% 30.25 in 10.0 mi SSW 19.6 mph 23.0 mph N/A   Clear
11:55 AM 65.3 °F - 11.1 °F 12% 30.24 in 10.0 mi SSW 17.3 mph 32.2 mph N/A   Clear
12:15 PM 66.2 °F - 10.8 °F 12% 30.22 in 10.0 mi SW 15.0 mph 26.5 mph N/A   Clear
12:35 PM 67.8 °F - 4.5 °F 8% 30.22 in 10.0 mi WSW 18.4 mph 28.8 mph N/A   Clear
12:55 PM 67.8 °F - -0.6 °F 7% 30.21 in 10.0 mi SW 18.4 mph 29.9 mph N/A   Clear
1:15 PM 68.2 °F - -3.5 °F 6% 30.20 in 10.0 mi WSW 20.7 mph 26.5 mph N/A   Clear
1:35 PM 68.5 °F - -0.0 °F 7% 30.19 in 10.0 mi WSW 16.1 mph 27.6 mph N/A   Clear
1:55 PM 69.3 °F - 1.9 °F 7% 30.19 in 10.0 mi WSW 15.0 mph 20.7 mph N/A   Clear
2:15 PM 68.7 °F - 1.8 °F 7% 30.19 in 10.0 mi WSW 11.5 mph 23.0 mph N/A   Clear
2:35 PM 68.0 °F - 2.3 °F 7% 30.19 in 10.0 mi WSW 10.4 mph 18.4 mph N/A   Clear
2:55 PM 67.1 °F - 2.8 °F 8% 30.19 in 10.0 mi West 12.7 mph 23.0 mph N/A   Clear
3:15 PM 66.7 °F - 3.7 °F 8% 30.18 in 10.0 mi WSW 12.7 mph 19.6 mph N/A   Clear
3:35 PM 66.2 °F - 3.4 °F 8% 30.18 in 10.0 mi WSW 12.7 mph 18.4 mph N/A   Clear
4:15 PM 63.7 °F - 5.7 °F 10% 30.17 in 10.0 mi WSW 12.7 mph 18.4 mph N/A   Clear
4:35 PM 61.5 °F - 6.6 °F 11% 30.18 in 10.0 mi SW 8.1 mph - N/A   Clear
4:55 PM 58.8 °F - 6.8 °F 13% 30.17 in 10.0 mi SSW 6.9 mph - N/A   Clear
5:15 PM 56.7 °F - 8.4 °F 15% 30.18 in 10.0 mi SSW 9.2 mph - N/A   Clear